Location: Chillicothe
(39.7950°N, 93.5520°W)
Time: 01:40:27
(UTC-05:00)

Transit 2A Rocket - All Passes

Search period start: 19 October 2019 00:00
Search period end: 29 October 2019 00:00
Orbit: 594 x 910 km, 66.7° (Epoch: 17 October)

Date Brightness Start Highest point End Pass type
(mag) Time Alt. Az. Time Alt. Az. Time Alt. Az.
19 Oct - 05:49:19 10° SSW 05:54:27 58° ESE 05:59:10 10° NE visible
19 Oct - 07:33:44 10° W 07:37:17 19° NW 07:40:39 10° N daylight
19 Oct - 14:33:49 10° N 14:37:43 32° NE 14:41:38 10° ESE daylight
19 Oct - 16:16:41 10° WNW 16:20:02 22° WSW 16:23:28 10° SSW daylight
20 Oct - 05:07:25 10° S 05:12:02 32° ESE 05:16:18 10° NE visible
20 Oct - 06:50:01 10° WSW 06:54:32 31° NW 06:58:45 10° N visible
20 Oct - 13:51:53 10° N 13:54:59 19° NE 13:58:05 10° E daylight
20 Oct - 15:33:36 10° NW 15:37:41 43° WSW 15:41:52 10° S daylight
21 Oct - 04:26:16 10° SSE 04:29:42 18° ESE 04:32:56 10° ENE visible
21 Oct - 06:06:52 10° SW 06:11:54 53° WNW 06:16:33 10° NNE visible
21 Oct - 13:10:44 10° NNE 13:12:07 11° NE 13:13:29 10° ENE daylight
21 Oct - 14:50:55 10° NNW 14:55:15 86° WSW 14:59:40 10° SSE daylight
22 Oct - 05:24:10 10° SSW 05:29:22 86° ESE 05:34:08 10° NNE visible
22 Oct - 07:09:58 10° WNW 07:12:26 14° NW 07:14:50 10° NNW daylight
22 Oct - 14:08:32 10° NNW 14:12:43 48° ENE 14:16:58 10° SE daylight
22 Oct - 15:52:24 10° WNW 15:54:49 15° WSW 15:57:15 10° SW daylight
23 Oct - 04:41:56 10° S 04:46:55 47° ESE 04:51:29 10° NE visible
23 Oct - 06:25:43 10° WSW 06:29:37 22° NW 06:33:17 10° N visible
23 Oct - 13:26:23 10° N 13:30:04 27° NE 13:33:47 10° ESE daylight
23 Oct - 15:08:49 10° NW 15:12:30 28° WSW 15:16:17 10° S daylight
24 Oct - 04:00:16 10° SSE 04:04:31 26° ESE 04:08:29 10° NE visible
24 Oct - 05:42:13 10° WSW 05:46:55 37° NW 05:51:16 10° NNE visible
24 Oct - 12:44:36 10° N 12:47:17 16° NE 12:49:58 10° E daylight
24 Oct - 14:25:55 10° NW 14:30:08 55° WSW 14:34:28 10° SSE daylight
25 Oct - 03:19:32 10° SE 03:22:12 14° ESE 03:24:45 10° ENE visible
25 Oct - 04:59:13 10° SW 05:04:19 65° WNW 05:09:00 10° NNE visible
25 Oct - 13:43:21 10° NNW 13:47:39 75° ENE 13:52:05 10° SSE daylight
26 Oct - 04:16:40 10° SSW 04:21:48 70° ESE 04:26:30 10° NE visible
26 Oct - 06:01:44 10° W 06:04:45 16° NW 06:07:38 10° N visible
26 Oct - 13:01:02 10° NNW 13:05:05 39° NE 13:09:13 10° SE daylight
26 Oct - 14:44:18 10° WNW 14:47:18 18° WSW 14:50:22 10° SSW daylight
27 Oct - 03:34:37 10° S 03:39:22 38° ESE 03:43:45 10° NE visible
27 Oct - 05:17:47 10° WSW 05:21:57 26° NW 05:25:52 10° N visible
27 Oct - 12:18:58 10° N 12:22:23 22° NE 12:25:51 10° ESE daylight
27 Oct - 14:01:02 10° NW 14:04:59 35° WSW 14:09:02 10° S daylight
28 Oct - 02:53:12 10° SSE 02:56:59 21° ESE 03:00:34 10° ENE night (unlit)
28 Oct - 04:34:28 10° SW 04:39:18 44° WNW 04:43:46 10° NNE visible
28 Oct - 11:37:26 10° NNE 11:39:34 13° NE 11:41:43 10° ENE daylight
28 Oct - 13:18:16 10° NNW 13:22:33 70° WSW 13:26:59 10° SSE daylight
